Orbital Elements at Epoch 2459200.5 (2020-Dec-17.0) TDB
Reference: JPL 25 (heliocentric ecliptic J2000)
Element | Value | Uncertainty (1-sigma) | Units |
e | .1415224323131382 | 4.298e-08 | |
a | 3.052643185734303 | 1.799e-08 | au |
q | 2.620625697105057 | 1.3457e-07 | au |
i | 1.321701918020523 | 4.7858e-06 | deg |
node | 42.39006532402597 | 0.00015876 | deg |
peri | 114.5054941867568 | 0.00015959 | deg |
M | 266.9844556770179 | 1.6931e-05 | deg |
tp | 2459703.844727563899 (2022-May-04.34472756) | 9.396e-05 | TDB |
period | 1948.105590758041 5.33 | 1.7221e-05 4.715e-08 | d yr |
n | .1847949113784525 | 1.6336e-09 | deg/d |
Q | 3.484660674363548 | 2.0536e-08 | au |
|
| | Orbit Determination Parameters
Additional Information
|